Weather History for Stanton, MN

Change the Weather History Date:

Tuesday, September 25, 2012

  Actual Average (KLVN) Record (KLVN)
Temperature  
Mean Temperature 54 °F -  
Max Temperature 69 °F 68 °F 89 °F (1956)
Min Temperature 37 °F 44 °F 30 °F (2001)
Degree Days  
Heating Degree Days 12    
Growing Degree Days 4 (Base 50)    
Moisture  
Dew Point 36 °F    
Average Humidity 57    
Maximum Humidity 89    
Minimum Humidity 24    
Precipitation  
Precipitation 0.00 in - - ()
Sea Level Pressure  
Sea Level Pressure 29.85 in    
Wind  
Wind Speed 4 mph (North)    
Max Wind Speed 12 mph    
Max Gust Speed 17 mph    
Visibility 10 miles    
Events      
Averages and records for this station are not official NWS values.
T = Trace of Precipitation, MM = Missing Value Source: NWS Daily Summary

Daily Weather History Graph

Daily Weather History Graph

Search for Another Location

Airport:

Trip Planner

Search our weather history database for the weather conditions in past years. The results will help you decide how hot, cold, wet, or windy it might be!

Date:

Astronomy

Sep. 25, 2012 Rise Set
Actual Time 7:03 AM CDT 7:02 PM CDT
Civil Twilight 6:34 AM CDT 7:31 PM CDT
Nautical Twilight 6:00 AM CDT 8:05 PM CDT
Astronomical Twilight 5:25 AM CDT 8:40 PM CDT
Moon 4:36 PM CDT (9/25) 2:16 AM CDT (9/25)
Length of Visible Light 12h 57m
Length of Day
11h 59m
Waxing Gibbous, 80% of the Moon is Illuminated
Sep 25
Waxing Gibbous
Sep 29
Full
Oct 8
Last Quarter
Oct 15
New
Oct 21
First Quarter

Hourly Weather History & Observations

Time (CDT) Temp. Windchill Dew Point Humidity Pressure Visibility Wind Dir Wind Speed Gust Speed Precip Events Conditions
12:12 AM 55.2 °F - 39.2 °F 55% 29.76 in 10.0 mi SSW 5.8 mph - N/A   Clear
12:32 AM 55.4 °F - 39.0 °F 54% 29.76 in 10.0 mi SSW 4.6 mph - N/A   Clear
12:52 AM 52.3 °F - 38.5 °F 59% 29.77 in 10.0 mi SSW 3.5 mph - N/A   Clear
1:12 AM 52.2 °F - 38.8 °F 60% 29.77 in 10.0 mi Calm Calm - N/A   Clear
1:32 AM 49.8 °F - 38.7 °F 65% 29.77 in 10.0 mi SSW 3.5 mph - N/A   Clear
1:52 AM 50.2 °F - 38.5 °F 64% 29.77 in 10.0 mi Calm Calm - N/A   Clear
2:12 AM 50.4 °F - 38.3 °F 63% 29.77 in 10.0 mi Calm Calm - N/A   Clear
2:32 AM 49.8 °F - 38.3 °F 65% 29.78 in 10.0 mi SSW 3.5 mph - N/A   Clear
2:52 AM 47.1 °F - 38.1 °F 71% 29.78 in 10.0 mi South 3.5 mph - N/A   Clear
3:12 AM 47.8 °F - 38.5 °F 70% 29.78 in 10.0 mi Calm Calm - N/A   Clear
3:32 AM 48.9 °F - 38.5 °F 67% 29.78 in 10.0 mi Calm Calm - N/A   Clear
3:52 AM 47.1 °F - 38.3 °F 71% 29.79 in 10.0 mi SW 3.5 mph - N/A   Clear
4:12 AM 44.8 °F - 38.1 °F 77% 29.79 in 10.0 mi Calm Calm - N/A   Clear
4:32 AM 45.5 °F - 38.3 °F 76% 29.79 in 10.0 mi Calm Calm - N/A   Clear
4:52 AM 44.2 °F - 38.1 °F 79% 29.79 in 10.0 mi Calm Calm - N/A   Clear
5:12 AM 43.2 °F - 37.8 °F 81% 29.79 in 10.0 mi Calm Calm - N/A   Clear
5:32 AM 43.3 °F - 37.2 °F 79% 29.79 in 10.0 mi Calm Calm - N/A   Clear
5:52 AM 43.0 °F - 37.6 °F 81% 29.80 in 10.0 mi Calm Calm - N/A   Clear
6:12 AM 42.1 °F - 37.2 °F 83% 29.80 in 10.0 mi Calm Calm - N/A   Clear
6:32 AM 41.4 °F - 36.9 °F 84% 29.80 in 10.0 mi Calm Calm - N/A   Clear
6:52 AM 40.3 °F - 36.5 °F 86% 29.81 in 10.0 mi Calm Calm - N/A   Clear
7:12 AM 39.2 °F - 35.4 °F 86% 29.82 in 10.0 mi Calm Calm - N/A   Clear
7:32 AM 38.5 °F - 35.4 °F 89% 29.83 in 10.0 mi Calm Calm - N/A   Clear
7:52 AM 40.1 °F - 36.9 °F 88% 29.83 in 10.0 mi Calm Calm - N/A   Clear
8:12 AM 42.6 °F - 38.7 °F 86% 29.85 in 10.0 mi Calm Calm - N/A   Clear
8:32 AM 46.9 °F - 40.3 °F 78% 29.86 in 10.0 mi Calm Calm - N/A   Clear
8:52 AM 49.8 °F - 40.8 °F 71% 29.86 in 10.0 mi NE 5.8 mph - N/A   Clear
9:12 AM 52.0 °F - 40.8 °F 66% 29.88 in 10.0 mi NE 5.8 mph - N/A   Clear
9:32 AM 53.2 °F - 40.6 °F 62% 29.88 in 10.0 mi NE 4.6 mph - N/A   Clear
9:52 AM 54.1 °F - 40.6 °F 60% 29.89 in 10.0 mi North 5.8 mph - N/A   Clear
10:12 AM 55.8 °F - 40.8 °F 57% 29.89 in 10.0 mi North 5.8 mph - N/A   Clear
10:32 AM 56.7 °F - 40.3 °F 54% 29.89 in 10.0 mi NNE 6.9 mph - N/A   Clear
10:52 AM 59.0 °F - 40.3 °F 50% 29.90 in 10.0 mi NNE 5.8 mph - N/A   Clear
11:12 AM 60.3 °F - 40.8 °F 49% 29.90 in 10.0 mi North 4.6 mph - N/A   Clear
11:32 AM 61.9 °F - 39.7 °F 44% 29.89 in 10.0 mi NNE 6.9 mph - N/A   Clear
11:52 AM 63.7 °F - 38.7 °F 40% 29.89 in 10.0 mi NNE 10.4 mph - N/A   Clear
12:12 PM 64.8 °F - 37.4 °F 36% 29.89 in 10.0 mi North 9.2 mph - N/A   Clear
12:32 PM 65.5 °F - 35.1 °F 32% 29.88 in 10.0 mi North 10.4 mph - N/A   Clear
12:52 PM 66.0 °F - 34.3 °F 31% 29.88 in 10.0 mi NNW 6.9 mph - N/A   Clear
1:12 PM 66.0 °F - 33.8 °F 30% 29.88 in 10.0 mi North 9.2 mph - N/A   Clear
2:12 PM 68.0 °F - 34.3 °F 29% 29.86 in 10.0 mi North 6.9 mph - N/A   Clear
2:32 PM 68.7 °F - 34.0 °F 28% 29.86 in 10.0 mi NNE 10.4 mph 17.3 mph N/A   Clear
2:52 PM 68.9 °F - 32.0 °F 25% 29.86 in 10.0 mi North 8.1 mph - N/A   Clear
3:12 PM 69.1 °F - 31.3 °F 25% 29.86 in 10.0 mi North 6.9 mph - N/A   Clear
3:32 PM 68.7 °F - 31.3 °F 25% 29.86 in 10.0 mi North 11.5 mph - N/A   Clear
3:52 PM 68.0 °F - 30.9 °F 25% 29.86 in 10.0 mi North 9.2 mph - N/A   Clear
4:12 PM 68.5 °F - 30.2 °F 24% 29.86 in 10.0 mi NNW 9.2 mph - N/A   Clear
4:32 PM 68.2 °F - 30.7 °F 25% 29.86 in 10.0 mi NNW 10.4 mph - N/A   Clear
4:52 PM 68.0 °F - 29.7 °F 24% 29.87 in 10.0 mi NW 9.2 mph - N/A   Clear
5:12 PM 66.9 °F - 31.1 °F 26% 29.87 in 10.0 mi NNW 9.2 mph - N/A   Clear
5:32 PM 67.1 °F - 31.3 °F 26% 29.88 in 10.0 mi NNW 8.1 mph - N/A   Clear
5:52 PM 64.2 °F - 32.7 °F 31% 29.88 in 10.0 mi North 6.9 mph - N/A   Clear
6:12 PM 63.5 °F - 32.4 °F 31% 29.89 in 10.0 mi NNW 6.9 mph - N/A   Clear
6:32 PM 62.2 °F - 32.0 °F 32% 29.89 in 10.0 mi North 3.5 mph - N/A   Clear
6:52 PM 61.0 °F - 32.4 °F 34% 29.89 in 10.0 mi North 4.6 mph - N/A   Clear
7:12 PM 56.5 °F - 32.4 °F 40% 29.90 in 10.0 mi NNW 4.6 mph - N/A   Clear
7:52 PM 54.5 °F - 35.2 °F 48% 29.91 in 10.0 mi Calm Calm - N/A   Clear
8:12 PM 51.8 °F - 36.5 °F 56% 29.92 in 10.0 mi Calm Calm - N/A   Clear
8:32 PM 49.8 °F - 37.0 °F 61% 29.92 in 10.0 mi Calm Calm - N/A   Clear
9:12 PM 45.0 °F - 36.0 °F 71% 29.93 in 7.0 mi Calm Calm - N/A   Clear
9:32 PM 42.6 °F - 35.6 °F 76% 29.94 in 7.0 mi Calm Calm - N/A   Clear
9:52 PM 41.9 °F 40.0 °F 35.2 °F 77% 29.94 in 10.0 mi South 3.5 mph - N/A   Clear
10:12 PM 41.9 °F - 35.2 °F 77% 29.94 in 10.0 mi Calm Calm - N/A   Clear
10:32 PM 41.9 °F - 35.2 °F 77% 29.94 in 10.0 mi Calm Calm - N/A   Clear
10:52 PM 40.8 °F 38.8 °F 34.7 °F 79% 29.94 in 10.0 mi South 3.5 mph - N/A   Clear
11:32 PM 39.4 °F - 33.8 °F 80% 29.94 in 7.0 mi Calm Calm - N/A   Clear
11:52 PM 37.9 °F - 32.9 °F 82% 29.94 in 7.0 mi Calm Calm - N/A   Clear